Find WHDW 17-01

NORAD ID: 67236 Int'l Des: 2025-311 Owner: ZXW Country: CN Constellation: xingwang operational
LEOCIRCULAR

Live-Position

3D-Globus wird geladen...

Über WHDW 17-01

Beschreibung wird geladen...

Nächste Überflüge

Passes for default location (London). Set your location on the main map for personalized predictions.

Höhenverlauf

Loading altitude history...

Zweizeiliger Elementsatz

1 67236U 25311A 26106.91549503 -.00000070 00000-0 11580-3 0 9993
2 67236 50.0101 335.2818 0000584 109.4728 250.6207 13.29334191 15195
Epoch: 16. Apr. 2026 • Age: 12 hours

Aktueller Status

Höhe 1152.5 km
Geschwindigkeit 7.28 km/s
Subsatellitenpunkt -13.53°S, 172.74°E
Startdatum 25. Dez. 2025
Alter 0.3 years
Typ other

Technische Details

Klassifizierung Payload
Masse 700.00 kg
Trockenmasse 700.00 kg
Gesamtmasse 700.00 kg
Länge 3.00 m
Durchmesser 1.00 m
Spannweite 10.00 m
Form Box + 2 Pan
Hersteller CAST
Bus-Typ Xingwang C
Phasenstatus In Orbit
Besitzer/Staat ZXW/CN

Most Searched